{"data":{"norad_id":48140,"epoch":"2026-05-24T18:41:48.393312Z","epoch_age_seconds":91155,"freshness":"FRESH","line1":"1 48140U 21027BA  26144.77903233  .00001069  00000+0  46199-4 0  9998","line2":"2 48140  53.1587 171.7803 0001382  80.4420 279.6738 15.31705068284166","mean_motion":15.31705068,"eccentricity":0.0001382,"inclination_deg":53.1587,"raan_deg":171.7803,"arg_perigee_deg":80.442,"mean_anomaly_deg":279.6738,"bstar":4.6199e-5,"rev_number":28416,"period_min":94.012876896742,"perigee_km":469.77837511012,"apogee_km":471.67140053592,"semimajor_km":6848.861887823,"source":"CELESTRAK","updated_at":"2026-05-25T13:38:16.650616Z"}}